Location: Burbank
(38.7788°N, 114.0429°W)
Time: 02:08:25
(UTC+00:00)

S-56A Canister/Altair - Visible Passes

Search period start: 14 May 2026 00:00
Search period end: 24 May 2026 00:00
Orbit: 633 x 2484 km, 38.9° (Epoch: 13 May)

Date Brightness Start Highest point End Pass type
(mag) Time Alt. Az. Time Alt. Az. Time Alt. Az.
14 May 7.0 04:55:38 10° WSW 05:00:02 69° SSE 05:00:13 68° SE visible
14 May 9.8 09:11:47 22° SE 09:11:47 22° SE 09:14:50 10° SE visible
14 May 9.6 11:09:10 17° SW 11:11:09 19° SSW 11:17:18 10° S visible
15 May 7.1 04:20:52 10° WSW 04:25:19 61° SSE 04:27:43 26° E visible
15 May 9.5 06:24:10 10° W 06:25:00 16° W 06:25:00 16° W visible
15 May 9.7 10:37:43 20° SSW 10:37:43 20° SSW 10:42:16 10° SSE visible
16 May 7.2 03:46:02 10° WSW 03:50:36 53° SSE 03:54:58 10° E visible
16 May 8.1 05:49:28 10° W 05:52:18 40° W 05:52:18 40° W visible
16 May 10.3 10:06:20 12° SSE 10:06:20 12° SSE 10:07:11 10° SSE visible
17 May 7.5 03:11:10 10° SW 03:15:53 46° SSE 03:20:07 10° E visible
17 May 7.0 05:14:41 10° W 05:19:08 88° N 05:19:27 77° E visible
18 May 7.0 04:39:50 10° W 04:44:23 89° SSE 04:46:30 31° E visible
18 May 9.7 06:43:18 10° W 06:43:46 13° W 06:43:46 13° W visible
19 May 7.0 04:04:55 10° W 04:09:38 85° S 04:13:29 14° E visible
19 May 8.6 06:08:36 10° W 06:10:44 29° W 06:10:44 29° W visible
20 May 7.1 03:29:54 10° WSW 03:34:53 80° S 03:39:19 10° E visible
20 May 7.3 05:33:50 10° W 05:37:39 65° W 05:37:39 65° W visible
21 May 7.0 04:58:59 10° W 05:03:31 87° SSW 05:04:32 54° ESE visible
22 May 7.0 04:24:03 10° W 04:28:46 89° NNW 04:31:23 24° E visible
22 May 9.4 06:27:48 10° W 06:28:37 15° W 06:28:37 15° W visible
23 May 7.2 03:49:01 10° W 03:54:00 88° N 03:58:13 11° E visible
23 May 8.4 05:52:59 10° W 05:55:27 30° WSW 05:55:27 30° WSW visible
